User: anonymous   Login
Location: Caltech
(34.1382°N, 118.1253°W)
Time: 05:55:50
(UTC-07:00)
Language:

Iridium 21 - Orbit

View from above orbital plane
View from above orbital plane
View from above satellite
View from above satellite

Ground track
Ground track

The orbit data is extracted from the following two-line orbital elements,

1 25778U 99032B   17266.21306109  .00000182  00000-0  57865-4 0  9992
2 25778  86.4021 183.0134 0002270  84.5575 275.5880 14.34219088962166
Epoch (UTC): 23 September 2017 05:06:48
Eccentricity: 0.0002270
inclination: 86.4021°
perigee height: 776 km
apogee height: 779 km
right ascension of ascending node: 183.0134°
argument of perigee: 84.5575°
revolutions per day: 14.34219088
mean anomaly at epoch: 275.5880°
orbit number at epoch: 96216

The dashed part of the orbit path shows where the satellite is in the earth's shadow,  

DLR